AFR934 LFPG-FMMI

Flight info

Callsign AFR934
Flight time N/A
Altitude 33000
Route OKASI DCT OKEKO DCT MOU DCT MADIV DCT MOKIP DCT TUFTA DCT KOGAS DCT MEDAM DCT NITAM DCT MOGBO DCT ELB DCT GILIO DCT AGNIS DCT CDC DCT BELIX DCT SALUN N705 BOPIX N710 TAKRI P751 LXR M999 JDW G650 ULONI UG650 KONET DCT XADOX DCT DWA UN304 MOGDU UR775 MG UA401 TN TN1Z
Aircraft B772/H-SDE2E3FGHIJ3J5M1P2RWXYZ/LB1D1

Departure

Time N/A
Airport Charles de Gaulle International Airport (LFPG)

Arrival

Time 2026-05-03 20:43
Airport Ivato International Airport (FMMI)
Time Latitude Longitude Altitude Speed Heading
2026-05-03 20:15 -16.58169 46.60727 41067 ft 478 kts 166°
2026-05-03 20:15 -16.64571 46.62578 41064 ft 477 kts 166°
2026-05-03 20:16 -16.70972 46.64430 41064 ft 477 kts 166°
2026-05-03 20:16 -16.77369 46.66283 41064 ft 477 kts 166°
2026-05-03 20:17 -16.83721 46.68123 41058 ft 477 kts 166°
2026-05-03 20:17 -16.86925 46.69052 40747 ft 482 kts 166°
2026-05-03 20:17 -16.90171 46.69992 40060 ft 484 kts 166°
2026-05-03 20:17 -16.93409 46.70932 39402 ft 482 kts 167°
2026-05-03 20:18 -16.96642 46.71871 38691 ft 483 kts 167°
2026-05-03 20:18 -16.99869 46.72809 38088 ft 479 kts 167°
2026-05-03 20:18 -17.03061 46.73737 37577 ft 474 kts 167°
2026-05-03 20:18 -17.06218 46.74655 37088 ft 469 kts 167°
2026-05-03 20:19 -17.09341 46.75564 36617 ft 464 kts 167°
2026-05-03 20:19 -17.12435 46.76463 36158 ft 459 kts 167°
2026-05-03 20:19 -17.15464 46.77344 35696 ft 455 kts 167°
2026-05-03 20:19 -17.18503 46.78228 35233 ft 452 kts 167°
2026-05-03 20:20 -17.21521 46.79106 34741 ft 449 kts 166°
2026-05-03 20:20 -17.24519 46.79979 34267 ft 446 kts 166°
2026-05-03 20:20 -17.27500 46.80847 33748 ft 443 kts 166°
2026-05-03 20:20 -17.30455 46.81708 33284 ft 439 kts 167°
2026-05-03 20:21 -17.33379 46.82560 32817 ft 434 kts 166°
2026-05-03 20:21 -17.36277 46.83405 32353 ft 430 kts 166°
2026-05-03 20:21 -17.39146 46.84241 31919 ft 426 kts 166°
2026-05-03 20:21 -17.41954 46.85061 31462 ft 422 kts 166°
2026-05-03 20:22 -17.44771 46.85883 31023 ft 419 kts 166°
2026-05-03 20:22 -17.47564 46.86699 30579 ft 415 kts 166°
2026-05-03 20:22 -17.50334 46.87507 30123 ft 412 kts 166°
2026-05-03 20:22 -17.53086 46.88311 29585 ft 409 kts 166°
2026-05-03 20:23 -17.55816 46.89108 29082 ft 406 kts 166°
2026-05-03 20:23 -17.58526 46.89900 28592 ft 403 kts 166°
2026-05-03 20:23 -17.61218 46.90687 28134 ft 400 kts 166°
2026-05-03 20:23 -17.63890 46.91468 27665 ft 398 kts 165°
2026-05-03 20:24 -17.66511 46.92235 27209 ft 395 kts 165°
2026-05-03 20:24 -17.69153 46.93008 26765 ft 393 kts 165°
2026-05-03 20:24 -17.71778 46.93777 26305 ft 391 kts 165°
2026-05-03 20:24 -17.74393 46.94543 25883 ft 389 kts 165°
2026-05-03 20:25 -17.76998 46.95306 25426 ft 388 kts 165°
2026-05-03 20:25 -17.79584 46.96063 24971 ft 379 kts 165°
2026-05-03 20:25 -17.82064 46.96791 24555 ft 365 kts 165°
2026-05-03 20:25 -17.84507 46.97507 24175 ft 365 kts 164°
2026-05-03 20:26 -17.86916 46.98213 23756 ft 365 kts 164°
2026-05-03 20:26 -17.89358 46.98930 23286 ft 364 kts 164°
2026-05-03 20:26 -17.91795 46.99645 22873 ft 362 kts 164°
2026-05-03 20:26 -17.94213 47.00355 22454 ft 360 kts 164°
2026-05-03 20:27 -17.96621 47.01064 22050 ft 358 kts 163°
2026-05-03 20:27 -17.99011 47.01769 21648 ft 356 kts 163°
2026-05-03 20:27 -18.01390 47.02470 21259 ft 354 kts 163°
2026-05-03 20:27 -18.03757 47.03168 20856 ft 352 kts 163°
2026-05-03 20:28 -18.06113 47.03863 20480 ft 351 kts 163°
2026-05-03 20:28 -18.08426 47.04546 20086 ft 349 kts 163°
2026-05-03 20:28 -18.10760 47.05236 19688 ft 348 kts 163°
2026-05-03 20:28 -18.13087 47.05924 19289 ft 347 kts 163°
2026-05-03 20:29 -18.15409 47.06610 18886 ft 346 kts 163°
2026-05-03 20:29 -18.17728 47.07295 18481 ft 346 kts 163°
2026-05-03 20:29 -18.19991 47.07963 18012 ft 326 kts 163°
2026-05-03 20:29 -18.22163 47.08606 17644 ft 323 kts 163°
2026-05-03 20:30 -18.24318 47.09244 17258 ft 321 kts 163°
2026-05-03 20:30 -18.26465 47.09879 16885 ft 319 kts 163°
2026-05-03 20:30 -18.28570 47.10502 16512 ft 318 kts 163°
2026-05-03 20:30 -18.30691 47.11134 16133 ft 313 kts 161°
2026-05-03 20:31 -18.32619 47.12113 15735 ft 304 kts 143°
2026-05-03 20:31 -18.34262 47.13501 15397 ft 304 kts 141°
2026-05-03 20:31 -18.35924 47.14913 15052 ft 311 kts 141°
2026-05-03 20:31 -18.37638 47.16356 14665 ft 319 kts 141°
2026-05-03 20:32 -18.39386 47.17819 14277 ft 322 kts 142°
2026-05-03 20:32 -18.41116 47.19260 13855 ft 321 kts 142°
2026-05-03 20:32 -18.42865 47.20713 13437 ft 319 kts 142°
2026-05-03 20:32 -18.44600 47.22154 13058 ft 317 kts 142°
2026-05-03 20:33 -18.46327 47.23586 12669 ft 315 kts 142°
2026-05-03 20:33 -18.48044 47.25009 12288 ft 313 kts 142°
2026-05-03 20:33 -18.49748 47.26422 11915 ft 311 kts 142°
2026-05-03 20:33 -18.51439 47.27824 11548 ft 308 kts 142°
2026-05-03 20:34 -18.53118 47.29217 11194 ft 306 kts 142°
2026-05-03 20:34 -18.54789 47.30603 10830 ft 304 kts 142°
2026-05-03 20:34 -18.56464 47.31845 10543 ft 291 kts 156°
2026-05-03 20:34 -18.58410 47.32173 10318 ft 286 kts 187°
2026-05-03 20:35 -18.60189 47.31295 10064 ft 287 kts 222°
2026-05-03 20:35 -18.61424 47.29704 9777 ft 277 kts 228°
2026-05-03 20:35 -18.62752 47.28244 9426 ft 274 kts 218°
2026-05-03 20:35 -18.64275 47.27066 9144 ft 270 kts 210°
2026-05-03 20:36 -18.65900 47.26090 8844 ft 268 kts 205°
2026-05-03 20:36 -18.67564 47.25221 8553 ft 266 kts 202°
2026-05-03 20:36 -18.69255 47.24431 8324 ft 265 kts 201°
2026-05-03 20:36 -18.70914 47.23720 8201 ft 257 kts 198°
2026-05-03 20:37 -18.72579 47.23122 8073 ft 248 kts 193°
2026-05-03 20:37 -18.74217 47.22998 7948 ft 231 kts 163°
2026-05-03 20:37 -18.75547 47.23809 7862 ft 218 kts 132°
2026-05-03 20:37 -18.76317 47.25131 7777 ft 208 kts 109°
2026-05-03 20:38 -18.76586 47.26584 7692 ft 199 kts 99°
2026-05-03 20:38 -18.76761 47.28011 7533 ft 192 kts 100°
2026-05-03 20:38 -18.76948 47.29380 7321 ft 186 kts 101°
2026-05-03 20:38 -18.77142 47.30717 7099 ft 183 kts 101°
2026-05-03 20:39 -18.77338 47.32043 6877 ft 182 kts 101°
2026-05-03 20:39 -18.77530 47.33334 6667 ft 177 kts 101°
2026-05-03 20:39 -18.77711 47.34562 6434 ft 162 kts 100°
2026-05-03 20:39 -18.77876 47.35674 6248 ft 145 kts 101°
2026-05-03 20:40 -18.78029 47.36696 6067 ft 139 kts 100°
2026-05-03 20:40 -18.78178 47.37700 5910 ft 139 kts 100°
2026-05-03 20:40 -18.78328 47.38710 5703 ft 139 kts 102°
2026-05-03 20:40 -18.78482 47.39715 5526 ft 138 kts 101°
2026-05-03 20:41 -18.78670 47.40697 5326 ft 135 kts 100°
2026-05-03 20:41 -18.78763 47.41679 5114 ft 135 kts 95°
2026-05-03 20:41 -18.78891 47.42639 4906 ft 134 kts 100°
2026-05-03 20:41 -18.79044 47.43648 4754 ft 143 kts 99°
2026-05-03 20:42 -18.79206 47.44685 4552 ft 143 kts 99°
2026-05-03 20:42 -18.79363 47.45727 4363 ft 144 kts 98°
2026-05-03 20:42 -18.79513 47.46740 4175 ft 132 kts 100°
2026-05-03 20:42 -18.79644 47.47597 4168 ft 103 kts 99°
2026-05-03 20:43 -18.79742 47.48213 4166 ft 69 kts 99°
2026-05-03 20:43 -18.79780 47.48416 4165 ft 19 kts 121°
2026-05-03 20:43 -18.79794 47.48497 4165 ft 9 kts 25°
2026-05-03 20:43 -18.79772 47.48455 4165 ft 13 kts 275°
2026-05-03 20:44 -18.79758 47.48316 4165 ft 25 kts 277°
2026-05-03 20:44 -18.79746 47.48150 4167 ft 18 kts 252°
2026-05-03 20:44 -18.79784 47.48122 4168 ft 0 kts 191°
2026-05-03 20:45 -18.79785 47.48122 4168 ft 2 kts 191°
2026-05-03 20:45 -18.79908 47.48075 4170 ft 12 kts 228°
2026-05-03 20:45 -18.79898 47.47989 4170 ft 12 kts 288°
2026-05-03 20:45 -18.79880 47.47903 4170 ft 9 kts 281°
2026-05-03 20:46 -18.79875 47.47851 4170 ft 8 kts 322°
2026-05-03 20:46 -18.79848 47.47884 4170 ft 8 kts 111°
2026-05-03 20:46 -18.79874 47.47947 4170 ft 12 kts 112°
2026-05-03 20:46 -18.79898 47.48035 4170 ft 9 kts 128°
2026-05-03 20:47 -18.79959 47.48028 4170 ft 7 kts 200°
2026-05-03 20:47 -18.79990 47.48016 4171 ft 1 kts 201°
2026-05-03 20:47 -18.79995 47.48013 4171 ft 0 kts 202°